BEEAGLESAT (42736 NORAD) Tracking and Keplerian Element Data

This shows tracking and keplerian element data for the satellite.

Feedback or suggestion? Click here.




ElementValue
Catalog42736
NameBEEAGLESAT
Epoch Orbit11000
Epoch Day116.58349394
Epoch Year2019
RAAN172.4218
Inclination51.6116
Eccentricity0.0006034
Argument of Perigee335.721
Mean Anonmoly140.8917
Mean Motion16.36759636
Decay Rate0.05344197
L11 42736U 98067MR 19116.58349394 .05344197 12378-4 56382-3 0 9990
L22 42736 51.6116 172.4218 0006034 335.7210 140.8917 16.36759636110007

Live tracking and technical data element details for BEEAGLESAT (NORAD 42736). BEEAGLESAT can be tracked NOW for your location showing map with azimuth and elevation plus other details from your city location.

Track the satellite on the map from your city or location and see movement details for azimuth, elevation, latitude, longitude, range, height, and movement on the map or in text.







IsCatalogInMostPopularTable: catalog: 42736, numindb: 320
Update: records affected: 1



GetName: 42736 BEEAGLESAT

Hit Count: updated at: Mon, 14 Oct 2019 01:32:58 GMT